Home > Weather > Dublin > Past weeks

Flag for Ireland Weather for the Past 2 Weeks in Dublin, Ireland

Now
45 °F

Passing clouds.


Feels Like: 42 °F
Forecast: 47 / 55 °F
Wind: 5 mph from West

Location: Dublin Airport

Current Time: May 6, 2016 at 2:55:43 AM

Latest Report: May 6, 2016 at 2:30 AM


Visibility: N/A

Pressure: 29.98 "Hg

Humidity: 87%

Dew Point: 41 °F

Location of DublinLocation

Historic Weather in Dublin — Graph

°F

Dublin Temperature Yesterday

Maximum temperature yesterday: 59 °F (at 1:30 PM)
Minimum temperature yesterday: 46 °F (at 10:30 PM)
Average temperature yesterday: 52 °F

High & Low Weather Summary for the Past Weeks

 TemperatureHumidityPressure
High61 °F (May 1, 4:00 PM)100% (Apr 23, 6:00 AM)30.33 "Hg (Apr 23, 6:00 AM)
Low32 °F (Apr 23, 3:00 AM)38% (Apr 21, 3:00 PM)29.68 "Hg (Apr 28, 4:00 PM)
Average46 °F70%30.08 "Hg
* Reported Apr 21 1:00 AM — May 6 1:30 AM, Dublin, Weather by CustomWeather, © 2016

Note: Actual official high and low records may vary slightly from our data, if they occured in-between our weather recording intervals... More about our weather records

Advertising

Dublin Weather History for the Previous 24 Hours

Scroll right to see more
 ConditionsComfort  
Time TempWeatherWind HumidityBarometerVisibility
1:30 AM
Fri, May 6
45 °FPassing clouds.2 mph87%30.01 "HgN/A
1:00 AM43 °FClear.3 mph87%30.01 "Hg10 mi
12:30 AM46 °FPassing clouds.5 mph82%30.01 "HgN/A
12:00 AM46 °FPassing clouds.5 mph87%30.01 "HgN/A
11:30 PM
Thu, May 5
48 °FPassing clouds.2 mph82%30.01 "HgN/A
11:00 PM48 °FPassing clouds.3 mph82%30.01 "HgN/A
10:30 PM46 °FPassing clouds.3 mph87%30.01 "HgN/A
10:00 PM48 °FPartly sunny.3 mph82%30.01 "HgN/A
9:30 PM48 °FPartly sunny.5 mph82%30.01 "HgN/A
9:00 PM50 °FBroken clouds.7 mph76%30.01 "HgN/A
8:30 PM52 °FBroken clouds.7 mph77%30.01 "HgN/A
8:00 PM52 °FPartly sunny.8 mph77%30.01 "HgN/A
7:30 PM54 °FPartly sunny.7 mph72%30.01 "HgN/A
7:00 PM54 °FPartly sunny.9 mph72%30.01 "HgN/A
6:30 PM54 °FBroken clouds.9 mph72%30.01 "HgN/A
6:00 PM55 °FBroken clouds.10 mph67%30.01 "HgN/A
5:30 PM57 °FBroken clouds.10 mph63%30.01 "HgN/A
5:00 PM57 °FPartly sunny.9 mph59%30.01 "HgN/A
4:30 PM59 °FPartly sunny.10 mph55%30.01 "HgN/A
4:00 PM57 °FPartly sunny.10 mph63%30.01 "HgN/A
3:30 PM59 °FPartly sunny.12 mph45%30.01 "HgN/A
3:00 PM59 °FPartly sunny.7 mph45%30.04 "HgN/A
2:30 PM59 °FPartly sunny.7 mph45%30.04 "HgN/A
2:00 PM59 °FPartly sunny.12 mph48%30.04 "HgN/A
1:30 PM59 °FPartly sunny.10 mph45%30.04 "HgN/A
1:00 PM57 °FPartly sunny.9 mph48%30.04 "HgN/A
12:30 PM57 °FPartly sunny.12 mph48%30.04 "HgN/A
12:00 PM55 °FBroken clouds.13 mph51%30.04 "HgN/A
11:30 AM54 °FPartly sunny.13 mph58%30.04 "HgN/A
11:00 AM54 °FBroken clouds.14 mph58%30.04 "HgN/A
10:30 AM52 °FBroken clouds.14 mph67%30.04 "HgN/A
10:00 AM54 °FBroken clouds.15 mph67%30.04 "HgN/A
9:30 AM52 °FBroken clouds.10 mph62%30.04 "HgN/A
9:00 AM52 °FBroken clouds.10 mph72%30.04 "HgN/A
8:30 AM50 °FBroken clouds.9 mph82%30.04 "HgN/A
8:00 AM50 °FBroken clouds.10 mph82%30.04 "HgN/A
7:30 AM48 °FBroken clouds.8 mph87%30.04 "HgN/A
7:00 AM48 °FBroken clouds.9 mph87%30.04 "HgN/A
6:30 AM48 °FPassing clouds.8 mph87%30.04 "HgN/A
6:00 AM48 °FPassing clouds.10 mph87%30.04 "HgN/A
5:30 AM50 °FPassing clouds.10 mph82%30.04 "HgN/A
5:00 AM50 °FPassing clouds.13 mph76%30.04 "HgN/A
4:30 AM50 °FPassing clouds.13 mph76%30.04 "HgN/A
4:00 AM48 °FPartly cloudy.12 mph82%30.04 "HgN/A
3:30 AM50 °FPartly cloudy.14 mph76%30.04 "HgN/A
3:00 AM48 °FPartly cloudy.12 mph82%30.04 "HgN/A
2:30 AM48 °FPassing clouds.12 mph82%30.04 "HgN/A
2:00 AM50 °FPartly cloudy.12 mph71%30.04 "HgN/A
Weather by CustomWeather, © 2016

See weather overviewHow to use our weather pages